Weather History for Cross City, FL

Change the Weather History Date:

Monday, March 24, 2014

  Actual Average Record
Temperature  
Mean Temperature 64 °F 64 °F  
Max Temperature 71 °F 77 °F 87 °F (2007)
Min Temperature 57 °F 50 °F 44 °F (2001)
Degree Days  
Heating Degree Days 1 3  
Month to date heating degree days 136 115  
Since 1 July heating degree days 1131 1235  
Cooling Degree Days 0 2  
Month to date cooling degree days 10 30  
Year to date cooling degree days 45 57  
Growing Degree Days 14 (Base 50)    
Moisture  
Dew Point 53 °F    
Average Humidity 70    
Maximum Humidity 87    
Minimum Humidity 57    
Precipitation  
Precipitation 0.00 in 0.14 in 2.49 in (2012)
Month to date precipitation 4.96 3.27  
Year to date precipitation 15.11 10.58  
Sea Level Pressure  
Sea Level Pressure 30.03 in    
Wind  
Wind Speed 7 mph (NE)    
Max Wind Speed 13 mph    
Max Gust Speed 19 mph    
T = Trace of Precipitation, MM = Missing Value Source: NWS Daily Summary

Daily Weather History Graph

Daily Weather History Graph

Search for Another Location

Airport:

Trip Planner

Search our weather history database for the weather conditions in past years. The results will help you decide how hot, cold, wet, or windy it might be!

Date:

Astronomy

Mar. 24, 2014 Rise Set
Actual Time 7:31 AM EDT 7:46 PM EDT
Civil Twilight 7:07 AM EDT 8:10 PM EDT
Nautical Twilight 6:39 AM EDT 8:37 PM EDT
Astronomical Twilight 6:11 AM EDT 9:06 PM EDT
Moon 2:36 AM EDT (3/24) 1:34 PM EDT (3/24)
Length of Visible Light 13h 02m
Length of Day
12h 14m
Last Quarter, 43% of the Moon is Illuminated
Mar 24
Last Quarter
Mar 30
New
Apr 7
First Quarter
Apr 15
Full
Apr 22
Last Quarter

Hourly Weather History & Observations

Time (EDT) Temp. Dew Point Humidity Pressure Visibility Wind Dir Wind Speed Gust Speed Precip Events Conditions
12:53 AM 66.0 °F 63.0 °F 90% 30.04 in - NNW 6.9 mph - N/A   Unknown
1:53 AM 64.0 °F 59.0 °F 84% 30.05 in - North 10.4 mph - N/A   Unknown
2:53 AM 64.0 °F 55.0 °F 73% 30.04 in - North 10.4 mph - N/A   Unknown
3:53 AM 62.1 °F 54.0 °F 75% 30.05 in - North 5.8 mph - N/A   Unknown
4:53 AM 61.0 °F 53.1 °F 75% 30.06 in - North 5.8 mph - N/A   Unknown
5:53 AM 60.1 °F 52.0 °F 75% 30.04 in - NE 5.8 mph - N/A   Unknown
6:53 AM 57.9 °F 52.0 °F 81% 30.05 in - Calm Calm - N/A   Unknown
7:53 AM 57.9 °F 51.1 °F 78% 30.05 in - NNE 6.9 mph - N/A   Unknown
8:53 AM 60.1 °F 50.0 °F 69% 30.07 in - NNE 8.1 mph - N/A   Unknown
9:53 AM 62.1 °F 52.0 °F 70% 30.09 in - NE 9.2 mph 17.3 mph N/A   Unknown
10:53 AM 62.1 °F 52.0 °F 70% 30.11 in - Variable 5.8 mph - N/A   Unknown
11:53 AM 64.9 °F 53.1 °F 65% 30.09 in - ENE 9.2 mph - N/A   Unknown
12:53 PM 66.9 °F 53.1 °F 61% 30.09 in - ENE 8.1 mph - N/A   Unknown
1:53 PM 68.0 °F 53.1 °F 59% 30.06 in - Variable 6.9 mph - N/A   Unknown
2:53 PM 69.1 °F 53.1 °F 57% 30.01 in - Variable 4.6 mph - N/A   Unknown
3:53 PM 70.0 °F 54.0 °F 57% 30.00 in - Variable 5.8 mph - N/A   Unknown
4:53 PM 66.9 °F 53.1 °F 61% 29.99 in - ENE 6.9 mph - N/A   Unknown
5:53 PM 64.9 °F 53.1 °F 65% 29.97 in - ENE 9.2 mph - N/A   Unknown
6:53 PM 63.0 °F 52.0 °F 67% 29.98 in - East 9.2 mph - N/A   Unknown
7:53 PM 61.0 °F 51.1 °F 70% 29.98 in - ENE 6.9 mph - N/A   Unknown
8:53 PM 59.0 °F 50.0 °F 72% 29.99 in - ENE 8.1 mph - N/A   Unknown
9:53 PM 57.9 °F 50.0 °F 75% 29.99 in - Variable 4.6 mph - N/A   Unknown
10:53 PM 57.0 °F 48.9 °F 74% 29.99 in - ENE 5.8 mph - N/A   Unknown
11:53 PM 57.0 °F 48.9 °F 74% 29.97 in - ENE 4.6 mph - N/A   Unknown